Wind_Speed
39 40 41 41 41 42 42 43 44 44 44 45 46 48 50 51 52 54 54 55 56 57 57 58 59 59 59 59 58 58 57 56 55 55 54 53 52 51
40 41 41 42 42 42 43 43 44 45 45 45 47 49 51 52 53 55 56 56 57 57 57 58 59 58 58 58 58 57 56 55 54 54 53 52 51 50
41 41 41 42 42 42 43 43 44 45 46 46 48 50 51 53 54 55 56 56 56 57 57 58 58 58 57 57 57 56 55 54 54 53 52 51 50 49
41 41 42 42 42 42 42 43 44 45 46 47 48 50 52 54 54 55 55 56 56 56 57 57 58 58 57 57 56 56 55 55 54 53 52 51 49 48
41 41 42 42 42 42 42 43 44 45 46 47 48 51 52 53 54 54 55 55 56 56 57 58 58 57 57 57 56 56 55 55 53 52 51 49 48 47
41 41 42 42 42 42 43 44 45 45 46 48 49 51 52 52 53 54 54 55 56 57 58 58 58 58 57 57 57 56 55 54 53 52 50 48 47 47
41 41 41 42 42 42 43 44 45 45 47 48 49 50 51 52 53 53 54 55 56 57 58 58 59 58 57 57 56 56 55 54 53 51 49 47 47 45
41 41 42 42 42 42 44 44 45 45 47 48 49 50 51 52 52 54 55 55 55 56 57 58 59 58 57 56 56 56 55 53 52 50 48 47 45 43
42 42 42 41 41 42 43 44 44 46 47 48 49 50 50 51 53 54 54 55 55 56 57 58 58 57 57 57 57 56 54 52 51 49 47 45 44 41
41 42 41 41 41 41 42 43 44 46 47 48 49 50 50 51 53 53 53 54 55 57 58 57 57 57 58 58 58 56 54 51 49 48 46 44 42 40
41 40 40 40 40 41 42 43 44 45 46 47 49 49 50 52 52 53 53 54 56 57 57 57 56 57 57 58 57 56 53 50 48 46 44 42 40 38
40 39 39 40 41 42 42 43 43 44 45 47 48 49 50 52 52 52 53 55 56 56 56 56 57 57 56 56 55 53 51 48 47 45 43 40 38 36
39 39 39 40 40 41 41 42 43 44 45 46 48 48 50 51 52 52 53 55 56 56 55 56 56 57 57 55 53 51 48 46 45 43 41 39 36 34
38 39 39 39 40 40 41 41 42 43 45 46 47 48 50 51 52 52 53 54 55 55 55 56 56 56 56 54 51 49 46 44 42 41 39 37 34 32
38 38 38 38 39 40 40 41 42 43 44 45 47 48 50 51 52 52 53 54 54 55 55 56 56 56 55 53 50 46 43 42 41 39 37 34 32 30
37 37 37 37 38 39 39 40 41 42 44 45 46 48 50 51 51 51 52 53 54 55 56 55 55 55 54 51 48 45 43 41 39 37 35 33 30 28
36 37 37 37 37 38 38 39 41 42 44 45 46 48 49 50 50 50 51 53 53 54 54 54 54 53 52 49 46 43 42 40 38 35 33 31 29 26
36 36 36 36 37 37 38 39 40 41 43 45 46 48 49 49 49 50 51 52 53 53 52 52 51 51 50 47 44 42 40 39 37 34 31 28 26 24
35 35 35 35 36 36 38 39 40 41 43 45 46 47 48 48 49 50 51 52 52 52 51 50 50 49 47 45 42 40 38 37 35 32 29 26 25 24
34 34 34 35 35 36 37 38 40 41 43 44 45 46 47 48 49 50 51 51 50 50 50 49 48 47 45 42 40 38 36 34 32 30 27 25 24 23
33 34 34 34 35 36 37 38 39 40 41 43 44 46 47 48 49 49 50 50 50 49 48 47 47 46 44 41 38 37 35 32 30 27 25 24 23 22
33 34 34 34 35 36 37 37 38 39 41 42 44 46 47 47 48 48 49 49 49 48 47 46 45 44 42 39 36 34 33 32 29 26 24 23 21 20
33 33 34 34 34 35 36 36 37 39 41 42 45 46 47 47 47 48 48 48 47 46 45 45 44 43 40 37 34 32 31 29 27 25 24 22 21 19
Wind_Direction
291 294 296 297 299 300 301 303 305 307 308 309 309 310 312 313 313 314 314 314 314 315 315 315 315 315 315 315 315 314 313 311 310 308 306 304 302 300
291 293 294 296 298 299 301 303 305 307 308 309 309 311 312 313 313 314 314 314 315 316 316 317 317 317 317 317 317 316 315 313 312 310 309 307 305 302
290 292 294 295 298 299 301 303 305 307 308 309 310 311 312 313 313 314 315 315 316 317 317 318 318 318 318 319 318 317 316 315 313 312 311 309 307 305
289 291 293 295 297 298 301 302 304 307 308 309 310 312 313 313 313 315 316 317 318 318 319 319 319 319 320 320 319 318 317 316 315 314 313 311 309 307
288 291 292 294 296 298 300 302 304 306 308 309 311 312 313 313 314 315 317 318 319 319 319 320 320 320 321 320 320 319 318 318 317 315 314 312 310 309
287 290 291 294 296 298 300 302 304 306 308 310 311 312 313 314 314 316 317 319 319 319 320 321 321 321 321 321 320 320 319 318 317 316 315 313 311 310
286 288 290 292 295 298 300 303 305 307 308 310 312 313 314 314 315 316 317 319 319 320 321 322 322 322 321 321 321 320 319 319 318 317 316 314 313 311
285 286 289 292 295 298 301 303 305 307 309 310 312 313 314 314 315 316 318 319 319 320 321 322 322 322 322 322 321 321 320 319 319 318 317 316 314 313
284 285 288 292 295 298 301 303 305 307 308 310 312 313 314 315 316 317 318 319 321 321 322 323 323 323 323 322 322 321 321 320 319 319 318 317 316 314
283 286 289 293 295 297 300 302 304 307 309 311 312 313 314 316 317 318 319 320 321 322 323 324 324 324 323 323 322 322 321 320 320 320 319 318 317 315
284 287 290 292 295 297 300 302 304 307 309 311 313 314 315 316 317 318 319 320 321 322 323 324 325 324 324 323 323 322 321 321 321 321 320 319 318 317
283 287 289 292 295 298 300 302 305 307 309 311 313 314 316 317 317 318 319 321 322 323 324 325 325 325 325 324 323 322 322 322 322 321 321 320 319 319
282 285 289 293 296 298 300 302 305 307 309 311 313 315 316 318 318 319 320 322 323 325 325 326 326 327 327 327 325 324 323 323 323 323 322 321 320 320
282 286 289 293 296 298 300 303 305 307 310 312 314 315 317 318 318 319 321 323 325 325 326 327 327 328 328 328 327 326 325 325 325 324 323 322 321 321
282 286 290 293 296 298 300 303 306 308 310 312 314 316 317 318 319 320 322 324 325 326 327 327 328 329 329 329 329 328 327 327 327 326 325 324 323 323
283 287 290 293 295 297 300 303 307 309 311 312 314 316 317 319 320 321 323 324 326 326 327 328 329 330 330 330 329 329 329 329 329 328 327 326 325 325
283 286 289 292 295 298 301 304 307 309 312 313 314 316 318 319 320 322 323 325 326 327 327 328 329 330 331 331 330 330 330 330 330 330 329 328 327 327
282 286 289 292 295 298 301 303 306 309 312 314 316 317 318 319 321 322 324 325 326 327 328 329 330 330 331 331 331 331 331 330 331 331 332 331 330 330
283 287 290 292 295 298 300 303 307 309 312 314 316 317 318 320 321 322 324 325 326 327 328 329 330 331 331 331 331 331 331 331 332 333 334 334 333 333
285 288 289 292 295 298 301 304 307 310 312 314 316 317 319 320 321 323 324 326 327 327 328 329 330 331 331 331 331 331 332 332 333 333 334 334 334 335
284 286 289 292 295 298 300 304 307 310 312 314 316 318 319 320 321 323 325 326 327 327 328 329 330 331 331 331 332 332 332 333 334 333 333 334 335 337
284 286 289 292 294 297 300 304 307 310 312 313 316 318 319 320 321 323 325 326 327 328 328 329 330 330 330 331 331 332 332 333 334 334 335 336 337 338
283 286 289 292 294 297 301 304 307 310 311 313 316 318 319 320 321 322 325 326 327 328 328 328 329 329 330 330 331 332 333 334 335 335 337 339 340 341
Height
5749 5746 5743 5740 5737 5733 5729 5725 5722 5717 5713 5707 5701 5695 5689 5682 5676 5669 5661 5654 5646 5638 5630 5621 5612 5603 5594 5584 5575 5566 5558 5549 5542 5535 5528 5522 5516 5510
5740 5738 5735 5732 5729 5725 5721 5717 5712 5708 5704 5698 5692 5686 5679 5672 5665 5658 5650 5642 5634 5626 5617 5609 5599 5590 5581 5571 5562 5553 5544 5536 5528 5521 5514 5507 5501 5495
5732 5729 5727 5723 5720 5716 5712 5708 5704 5699 5694 5689 5682 5676 5669 5662 5655 5647 5639 5631 5623 5614 5606 5597 5587 5578 5569 5559 5550 5541 5532 5524 5515 5508 5501 5494 5487 5481
5723 5721 5718 5715 5711 5707 5703 5699 5695 5690 5685 5680 5673 5667 5660 5652 5645 5637 5628 5620 5612 5603 5594 5585 5576 5566 5557 5547 5538 5529 5520 5511 5503 5495 5488 5481 5474 5468
5715 5712 5709 5706 5703 5699 5695 5691 5686 5681 5676 5670 5664 5657 5650 5643 5635 5626 5617 5609 5600 5591 5583 5574 5564 5555 5545 5536 5526 5517 5508 5500 5492 5484 5476 5468 5462 5455
5706 5703 5700 5697 5694 5690 5686 5682 5677 5672 5667 5661 5655 5648 5640 5632 5625 5617 5609 5599 5590 5580 5571 5562 5553 5543 5534 5525 5516 5506 5497 5488 5479 5471 5463 5456 5449 5443
5696 5694 5691 5688 5684 5681 5677 5673 5668 5663 5657 5651 5645 5638 5631 5623 5615 5607 5599 5591 5581 5571 5561 5552 5543 5533 5523 5513 5504 5495 5486 5477 5468 5460 5452 5445 5437 5431
5687 5684 5682 5678 5675 5672 5668 5663 5658 5653 5648 5642 5635 5628 5621 5613 5605 5597 5589 5582 5574 5564 5553 5542 5532 5522 5512 5503 5493 5484 5474 5465 5457 5448 5441 5433 5426 5419
5677 5675 5672 5669 5666 5662 5658 5654 5649 5643 5638 5632 5626 5619 5612 5605 5597 5589 5579 5569 5562 5553 5543 5532 5521 5510 5501 5492 5482 5473 5464 5454 5446 5438 5430 5423 5416 5409
5667 5665 5663 5660 5656 5653 5649 5644 5639 5634 5629 5623 5617 5610 5602 5594 5586 5578 5569 5560 5551 5541 5532 5523 5512 5501 5490 5480 5470 5461 5453 5444 5436 5428 5420 5413 5406 5400
5658 5655 5653 5650 5647 5643 5639 5635 5630 5624 5618 5613 5606 5600 5592 5584 5577 5568 5560 5551 5543 5532 5522 5513 5503 5493 5481 5470 5459 5450 5441 5434 5426 5418 5411 5404 5397 5391
5648 5646 5643 5641 5637 5634 5630 5626 5621 5615 5610 5603 5597 5590 5583 5575 5567 5559 5550 5542 5532 5524 5513 5503 5493 5483 5475 5463 5451 5441 5432 5424 5416 5409 5402 5395 5389 5383
5638 5636 5634 5631 5628 5624 5620 5616 5611 5606 5600 5594 5588 5581 5573 5565 5557 5549 5541 5532 5522 5513 5503 5494 5484 5473 5462 5454 5443 5432 5424 5416 5408 5400 5393 5387 5382 5376
5629 5627 5624 5622 5618 5615 5611 5607 5602 5597 5591 5585 5579 5572 5564 5556 5548 5539 5531 5522 5513 5503 5493 5483 5474 5464 5454 5444 5434 5425 5415 5407 5400 5393 5386 5380 5374 5369
5619 5617 5615 5612 5609 5605 5602 5598 5593 5587 5582 5576 5570 5563 5555 5547 5539 5530 5521 5512 5503 5494 5484 5474 5464 5454 5444 5435 5426 5417 5409 5401 5393 5386 5380 5374 5369 5363
5609 5607 5605 5603 5600 5596 5593 5588 5583 5578 5573 5567 5560 5554 5546 5538 5530 5522 5513 5504 5494 5484 5474 5465 5455 5445 5436 5426 5417 5409 5401 5394 5388 5380 5374 5368 5363 5358
5600 5598 5596 5593 5590 5587 5583 5579 5574 5569 5564 5558 5551 5544 5537 5529 5521 5513 5505 5496 5487 5477 5467 5456 5446 5437 5428 5420 5411 5403 5395 5388 5381 5375 5369 5362 5357 5353
5590 5588 5586 5584 5581 5578 5574 5569 5565 5560 5554 5549 5542 5535 5528 5520 5512 5504 5496 5487 5478 5469 5459 5450 5441 5431 5421 5412 5405 5397 5390 5382 5376 5370 5364 5358 5353 5349
5580 5579 5577 5574 5571 5568 5564 5560 5556 5551 5545 5539 5533 5526 5519 5511 5504 5496 5487 5478 5469 5460 5452 5443 5434 5425 5417 5408 5399 5392 5385 5378 5371 5365 5360 5355 5350 5346
5571 5569 5567 5565 5562 5558 5555 5551 5547 5542 5536 5530 5524 5517 5510 5503 5495 5487 5479 5470 5461 5452 5444 5435 5427 5419 5410 5403 5395 5387 5380 5374 5367 5362 5356 5352 5347 5343
5561 5559 5557 5555 5552 5549 5546 5542 5538 5533 5527 5522 5516 5509 5502 5494 5487 5479 5470 5462 5454 5445 5437 5428 5420 5412 5404 5396 5389 5382 5375 5369 5364 5359 5354 5349 5345 5341
5551 5550 5548 5546 5543 5540 5537 5533 5529 5524 5519 5513 5507 5500 5493 5486 5478 5470 5462 5454 5446 5437 5429 5421 5413 5406 5398 5391 5384 5378 5372 5366 5360 5355 5351 5347 5342 5338
5541 5540 5538 5536 5534 5531 5528 5524 5520 5515 5510 5504 5498 5491 5484 5477 5470 5462 5454 5446 5438 5430 5423 5415 5407 5400 5393 5386 5380 5374 5368 5363 5357 5352 5348 5344 5340 5336